Simultaneous Nadir Overpasses (SNOs) Predictions

Prediction of SNOs between NOAA-19 and NPP Satellite Orbit:

Table of predicted SNOs for the next 14.0 days since TLE Epoch: 10/31/2015
Index Date (NOAA-19) Time (NOAA-19) Lat,Lon (NOAA-19) SZA (NOAA-19 ) Date (NPP) Time (NPP) Lat,Lon (NPP) SZA (NPP ) Distance(km) Time Diff (sec)
1 11/06/2015 08:51:31 -81.04, 174.05 80.09 11/06/2015 08:52:39 -81.03, 174.19 80.15 2.53 68
2 11/06/2015 09:42:35 81.04, -18.52 99.90 11/06/2015 09:43:24 81.03, -18.60 99.88 1.54 49
3 11/06/2015 10:33:33 -81.04, 148.70 80.09 11/06/2015 10:34:09 -81.03, 148.76 80.12 1.06 36
4 11/06/2015 11:24:37 81.04, -43.87 99.90 11/06/2015 11:24:54 81.04, -44.04 99.91 2.92 17
5 11/06/2015 12:15:35 -81.04, 123.35 80.09 11/06/2015 12:15:39 -81.04, 123.32 80.09 0.45 4
6 11/06/2015</
